Clinton, IA

11:55 PM CDT on June 27, 2017 (GMT -0500)
Clinton Municipal

Weather History for KCWI - October, 2011

Change the Weather History Date:

Monday, October 17, 2011

  Actual Average Record
Temperature  
Mean Temperature - -  
Max Temperature - 63 °F 88 °F (1950)
Min Temperature - 40 °F 24 °F (1992)
Moisture  
Dew Point -    
Average Humidity    
Maximum Humidity    
Minimum Humidity    
Precipitation  
Precipitation 0.00 in - - ()
Sea Level Pressure  
Sea Level Pressure 29.92 in    
Wind  
Wind Speed 9 mph (West)    
Max Wind Speed 15 mph    
Max Gust Speed 24 mph    
Visibility 10 miles    
Events      
Averages and records for this station are not official NWS values.
T = Trace of Precipitation, MM = Missing Value Source: NWS Daily Summary

Daily Weather History Graph

Daily Weather History Graph

Search for Another Location

Airport or City:

Trip Planner

Search our weather history database for the weather conditions in past years. The results will help you decide how hot, cold, wet, or windy it might be!

Date:

Astronomy

Oct. 17, 2011 Rise Set
Actual Time 7:15 AM CDT 6:17 PM CDT
Civil Twilight 6:47 AM CDT 6:45 PM CDT
Nautical Twilight 6:15 AM CDT 7:17 PM CDT
Astronomical Twilight 5:42 AM CDT 7:49 PM CDT
Moon 9:54 PM CDT (10/17) 12:25 PM CDT (10/17)
Length of Visible Light 11h 57m
Length of Day
11h 01m
Waning Gibbous, 74% of the Moon is Illuminated
Oct 17
Waning Gibbous
Oct 19
Last Quarter
Oct 26
New
Nov 2
First Quarter
Nov 10
Full

Hourly Weather History & Observations

Time (CDT) Temp. Dew Point Humidity Pressure Visibility Wind Dir Wind Speed Gust Speed Precip Events Conditions
1:55 AM - - N/A% 29.95 in 10.0 mi West 5.8 mph - N/A   Clear
3:35 AM - - N/A% 29.94 in 10.0 mi West 9.2 mph - N/A   Clear
3:55 AM - - N/A% 29.94 in 10.0 mi West 6.9 mph - N/A   Clear
5:15 AM - - N/A% 29.95 in 10.0 mi WSW 6.9 mph - N/A   Clear
5:55 AM - - N/A% 29.95 in 10.0 mi WSW 8.1 mph - N/A   Clear
6:35 AM - - N/A% 29.95 in 10.0 mi West 9.2 mph - N/A   Clear
6:55 AM - - N/A% 29.95 in 10.0 mi West 9.2 mph - N/A   Clear
7:36 AM - - N/A% 29.94 in 10.0 mi West 9.2 mph - N/A   Clear
8:55 AM - - N/A% 29.97 in 10.0 mi West 8.1 mph 16.1 mph N/A   Clear
9:15 AM - - N/A% 29.97 in 10.0 mi West 11.5 mph - N/A   Clear
9:55 AM - - N/A% 29.97 in 10.0 mi WNW 11.5 mph - N/A   Clear
10:35 AM - - N/A% 29.96 in 10.0 mi West 9.2 mph 16.1 mph N/A   Clear
10:56 AM - - N/A% 29.95 in 10.0 mi WNW 11.5 mph 19.6 mph N/A   Clear
11:15 AM - - N/A% 29.95 in 10.0 mi West 13.8 mph 20.7 mph N/A   Clear
11:55 AM - - N/A% 29.95 in 10.0 mi WNW 12.7 mph 24.2 mph N/A   Clear
12:15 PM - - N/A% 29.95 in 10.0 mi West 13.8 mph 19.6 mph N/A   Clear
1:15 PM - - N/A% 29.92 in 10.0 mi West 13.8 mph 24.2 mph N/A   Clear
1:55 PM - - N/A% 29.90 in 10.0 mi WSW 15.0 mph 19.6 mph N/A   Clear
2:35 PM - - N/A% 29.89 in 10.0 mi West 12.7 mph 17.3 mph N/A   Clear
2:55 PM - - N/A% 29.88 in 10.0 mi West 15.0 mph 20.7 mph N/A   Clear
3:15 PM - - N/A% 29.88 in 10.0 mi West 11.5 mph 18.4 mph N/A   Clear
5:15 PM - - N/A% 29.88 in 10.0 mi West 12.7 mph 19.6 mph N/A   Clear
6:15 PM - - N/A% 29.89 in 10.0 mi West 8.1 mph - N/A   Clear
6:35 PM - - N/A% 29.90 in 10.0 mi WSW 8.1 mph - N/A   Clear
7:35 PM - - N/A% 29.90 in 10.0 mi WSW 8.1 mph - N/A   Clear
8:15 PM - - N/A% 29.90 in 10.0 mi West 8.1 mph - N/A   Clear
9:35 PM - - N/A% 29.90 in 10.0 mi West 8.1 mph - N/A   Clear
10:15 PM - - N/A% 29.91 in 10.0 mi West 8.1 mph - N/A   Clear
10:35 PM - - N/A% 29.90 in 10.0 mi West 6.9 mph - N/A   Clear
10:55 PM - - N/A% 29.90 in 10.0 mi West 8.1 mph - N/A   Clear
11:15 PM - - N/A% 29.89 in 10.0 mi WNW 6.9 mph - N/A   Clear
11:55 PM - - N/A% 29.89 in 10.0 mi Calm Calm - N/A   Clear